Flag for Guadeloupe Weather past 2 weeks in Pointe-à-Pitre, Guadeloupe

Now
75 °F

Mild.


Feels Like: 75 °F
Forecast: 73 / 83 °F
Wind: 6 mph from East

Location: Le Raizet - Guadeloupe


UV Index: 10 (Very high)

Visibility: N/A


Pressure: 30.01 "Hg

Humidity: 83%

Dew point: 70 °F

Location of Pointe-à-PitreLocation

Historic Weather in Pointe-à-Pitre

°F

Pointe-à-Pitre temperature yesterday

Maximum temperature yesterday: 86 °F (at 11:30 AM)
Minimum temperature yesterday: 75 °F (at 12:00 AM)
Average temperature yesterday: 79 °F

Past Weeks' High & Low Weather Summary

 TemperatureHumidityPressure
High88 °F (Apr 9, 2:00 PM)94% (Apr 6, 5:00 AM)30.12 "Hg (Apr 6, 5:00 AM)
Low68 °F (Apr 14, 1:00 AM)33% (Apr 9, 1:00 PM)29.86 "Hg (Apr 15, 3:30 PM)
Average78 °F70%30.01 "Hg
* Reported Apr 6 5:00 AM — Apr 21 5:00 AM, Pointe-à-Pitre, Weather by CustomWeather, © 2014

Note: Actual official high and low records may vary slightly from our data, if they occured in-between our weather recording intervals... More about our weather records

Advertising

Historic Weather Conditions — Data for Previous 24 hours

 ConditionsComfort  
Time TempWeatherWind HumidityBarometerVisibility
5:00 AM
Apr 21
75 °FMild.6 mph83%30.01 "HgN/A
4:30 AM75 °FMild.5 mph78%30.01 "HgN/A
4:00 AM75 °FMild.7 mph78%29.98 "HgN/A
3:30 AM75 °FPassing clouds.5 mph83%29.98 "HgN/A
3:00 AM75 °FPassing clouds.5 mph78%29.98 "HgN/A
2:30 AM75 °FPassing clouds.6 mph83%29.98 "HgN/A
2:00 AM75 °FClear.7 mph83%30.01 "HgN/A
1:30 AM75 °FPassing clouds.5 mph78%30.01 "HgN/A
1:00 AM77 °FPassing clouds.5 mph74%30.01 "HgN/A
12:30 AM77 °FClear.7 mph79%30.04 "HgN/A
12:00 AM77 °FClear.7 mph79%30.04 "HgN/A
11:30 PM
Apr 20
77 °FClear.8 mph79%30.04 "HgN/A
10:30 PM77 °FPassing clouds.8 mph79%30.07 "HgN/A
10:00 PM77 °FPassing clouds.8 mph79%30.07 "HgN/A
9:30 PM77 °FPassing clouds.9 mph79%30.04 "HgN/A
9:00 PM77 °FPassing clouds.7 mph79%30.04 "HgN/A
8:30 PM77 °FPassing clouds.6 mph74%30.04 "HgN/A
8:00 PM79 °FPartly cloudy.5 mph70%30.04 "HgN/A
7:30 PM79 °FClear.8 mph70%30.04 "HgN/A
7:00 PM79 °FPassing clouds.8 mph70%30.04 "HgN/A
6:47 PM79 °FPassing clouds.10 mph70%30.04 "HgN/A
6:00 PM81 °FScattered clouds.14 mph66%30.01 "HgN/A
5:00 PM81 °FScattered clouds.16 mph66%30.01 "HgN/A
4:30 PM82 °FScattered clouds.17 mph62%30.01 "HgN/A
4:00 PM82 °FPartly sunny.17 mph62%30.01 "HgN/A
3:30 PM82 °FPartly sunny.16 mph62%30.01 "HgN/A
3:00 PM84 °FPartly sunny.17 mph58%30.01 "HgN/A
2:30 PM84 °FPartly sunny.18 mph55%30.01 "HgN/A
2:07 PMN/APartly sunny.N/AN/AN/AN/A
1:35 PM84 °FPartly sunny.20 mph58%30.04 "HgN/A
1:08 PM86 °FPartly sunny.18 mph55%30.04 "HgN/A
12:30 PM84 °FPartly sunny.20 mph55%30.07 "HgN/A
12:00 PM84 °FPartly sunny.18 mph58%30.07 "HgN/A
11:30 AM86 °FPartly sunny.17 mph52%30.07 "HgN/A
11:00 AM82 °FPartly sunny.16 mph58%30.07 "HgN/A
10:30 AM84 °FPartly sunny.15 mph58%30.09 "HgN/A
10:09 AM84 °FBroken clouds.16 mph58%30.09 "HgN/A
9:30 AM82 °FBroken clouds.16 mph62%30.09 "HgN/A
9:04 AM82 °FBroken clouds.16 mph62%30.09 "HgN/A
8:30 AM81 °FBroken clouds.17 mph62%30.09 "HgN/A
8:00 AM81 °FBroken clouds.13 mph62%30.09 "HgN/A
7:30 AM79 °FRain. Broken clouds.10 mph70%30.09 "HgN/A
7:00 AM79 °FOvercast.7 mph65%30.09 "HgN/A
6:30 AM77 °FPartly sunny.8 mph69%30.07 "HgN/A
6:00 AM77 °FOvercast.8 mph69%30.07 "HgN/A
5:30 AM77 °FPassing clouds.9 mph69%30.04 "HgN/A
5:00 AM75 °FOvercast.9 mph74%30.04 "HgN/A
Weather by CustomWeather, © 2014

See weather overview